Volver al catálogo

TEMPSAT 1

ActivoCienciaPO
NORAD 1512·PAYLOAD·🇺🇸 United States

Lanzado Aug 13, 1965 desde Vandenberg Space Force Base

Loading…

Próximos Pases (próximas 24 horas)

TLE

ActualizadoSource: Space-Track

Época: Sep 14, 2026, 08:47 UTC

1 01512U 65065E   26257.36603649  .00000028  00000-0  38830-4 0  9996
2 01512  90.0058 212.6109 0069842 359.9159 153.8627 13.33598354971939

Sigue TEMPSAT 1 en tiempo real con AllMySat

Download on the App Store